Data supplied by UK-AIR on 15/3/2018
All Data GMT hour ending 
Status: R =Ratified P=Provisional,P*=As supplied
,,Billingham,,,,,,,,,,,,,,,,,,,,,,,
Date,time,"Nitric oxide",status,unit,"Nitrogen dioxide",status,unit,"Nitrogen oxides as nitrogen dioxide",status,unit
 
01-01-2017,01:00,0.36089,R,ugm-3,6.30169,R,ugm-3,6.85504,R,ugm-3
01-01-2017,02:00,0.30933,R,ugm-3,5.55390,R,ugm-3,6.02820,R,ugm-3
01-01-2017,03:00,0.42533,R,ugm-3,6.79416,R,ugm-3,7.44632,R,ugm-3
01-01-2017,04:00,0.46400,R,ugm-3,2.83385,R,ugm-3,3.54530,R,ugm-3
01-01-2017,05:00,0.34800,R,ugm-3,2.06693,R,ugm-3,2.60052,R,ugm-3
01-01-2017,06:00,0.34800,R,ugm-3,2.24384,R,ugm-3,2.77743,R,ugm-3
01-01-2017,07:00,0.27066,R,ugm-3,2.36289,R,ugm-3,2.77791,R,ugm-3
01-01-2017,08:00,0.23200,R,ugm-3,2.24432,R,ugm-3,2.60004,R,ugm-3
01-01-2017,09:00,0.38666,R,ugm-3,1.71121,R,ugm-3,2.30408,R,ugm-3
01-01-2017,10:00,0.46400,R,ugm-3,1.88907,R,ugm-3,2.60052,R,ugm-3
01-01-2017,11:00,0.50266,R,ugm-3,4.90269,R,ugm-3,5.67343,R,ugm-3
01-01-2017,12:00,0.65733,R,ugm-3,5.72937,R,ugm-3,6.73726,R,ugm-3
01-01-2017,13:00,0.73466,R,ugm-3,6.37914,R,ugm-3,7.50561,R,ugm-3
01-01-2017,14:00,0.54133,R,ugm-3,5.49366,R,ugm-3,6.32368,R,ugm-3
01-01-2017,15:00,0.42533,R,ugm-3,5.49366,R,ugm-3,6.14582,R,ugm-3
01-01-2017,16:00,0.61866,R,ugm-3,6.73391,R,ugm-3,7.68251,R,ugm-3
01-01-2017,17:00,0.65733,R,ugm-3,8.21084,R,ugm-3,9.21873,R,ugm-3
01-01-2017,18:00,0.50266,R,ugm-3,3.36600,R,ugm-3,4.13674,R,ugm-3
01-01-2017,19:00,0.58000,R,ugm-3,6.08414,R,ugm-3,6.97345,R,ugm-3
01-01-2017,20:00,0.42533,R,ugm-3,3.72077,R,ugm-3,4.37293,R,ugm-3
01-01-2017,21:00,0.50266,R,ugm-3,2.42027,R,ugm-3,3.19101,R,ugm-3
01-01-2017,22:00,0.42533,R,ugm-3,3.07100,R,ugm-3,3.72316,R,ugm-3
01-01-2017,23:00,0.77333,R,ugm-3,2.30122,R,ugm-3,3.48697,R,ugm-3
01-01-2017,24:00,0.54133,R,ugm-3,2.59765,R,ugm-3,3.42768,R,ugm-3
02-01-2017,01:00,1.03027,R,ugm-3,2.67495,R,ugm-3,4.25468,R,ugm-3
02-01-2017,02:00,2.78179,R,ugm-3,15.65047,R,ugm-3,19.91582,R,ugm-3
02-01-2017,03:00,0.54133,R,ugm-3,4.96103,R,ugm-3,5.79105,R,ugm-3
02-01-2017,04:00,1.23607,R,ugm-3,4.36863,R,ugm-3,6.26392,R,ugm-3
02-01-2017,05:00,1.39074,R,ugm-3,4.25005,R,ugm-3,6.38249,R,ugm-3
02-01-2017,06:00,0.81168,R,ugm-3,5.72842,R,ugm-3,6.97298,R,ugm-3
02-01-2017,07:00,0.96603,R,ugm-3,8.32894,R,ugm-3,9.81017,R,ugm-3
02-01-2017,08:00,1.15905,R,ugm-3,8.50584,R,ugm-3,10.28303,R,ugm-3
02-01-2017,09:00,1.08203,R,ugm-3,9.74658,R,ugm-3,11.40567,R,ugm-3
02-01-2017,10:00,2.85912,R,ugm-3,16.35857,R,ugm-3,20.74250,R,ugm-3
02-01-2017,11:00,4.59755,R,ugm-3,17.94833,R,ugm-3,24.99781,R,ugm-3
02-01-2017,12:00,5.33127,R,ugm-3,19.30525,R,ugm-3,27.47976,R,ugm-3
02-01-2017,13:00,3.39983,R,ugm-3,14.58425,R,ugm-3,19.79724,R,ugm-3
02-01-2017,14:00,2.85912,R,ugm-3,11.74944,R,ugm-3,16.13337,R,ugm-3
02-01-2017,15:00,1.85442,R,ugm-3,13.99902,R,ugm-3,16.84243,R,ugm-3
02-01-2017,16:00,6.83863,R,ugm-3,33.83691,R,ugm-3,44.32267,R,ugm-3
02-01-2017,17:00,2.20242,R,ugm-3,17.48360,R,ugm-3,20.86059,R,ugm-3
02-01-2017,18:00,1.46776,R,ugm-3,15.36072,R,ugm-3,17.61126,R,ugm-3
02-01-2017,19:00,2.54979,R,ugm-3,31.90289,R,ugm-3,35.81252,R,ugm-3
02-01-2017,20:00,3.74783,R,ugm-3,45.90335,R,ugm-3,51.64993,R,ugm-3
02-01-2017,21:00,3.36147,R,ugm-3,33.79053,R,ugm-3,38.94472,R,ugm-3
02-01-2017,22:00,1.58438,R,ugm-3,15.12262,R,ugm-3,17.55197,R,ugm-3
02-01-2017,23:00,1.23639,R,ugm-3,8.97775,R,ugm-3,10.87352,R,ugm-3
02-01-2017,24:00,0.81168,R,ugm-3,9.27467,R,ugm-3,10.51923,R,ugm-3
03-01-2017,01:00,0.51555,R,ugm-3,7.55438,R,ugm-3,8.34487,R,ugm-3
03-01-2017,02:00,0.46400,R,ugm-3,7.14223,R,ugm-3,7.85368,R,ugm-3
03-01-2017,03:00,0.58000,R,ugm-3,9.03035,R,ugm-3,9.91966,R,ugm-3
03-01-2017,04:00,0.58000,R,ugm-3,8.79511,R,ugm-3,9.68442,R,ugm-3
03-01-2017,05:00,0.77301,R,ugm-3,8.20367,R,ugm-3,9.38894,R,ugm-3
03-01-2017,06:00,1.58407,R,ugm-3,12.80562,R,ugm-3,15.23450,R,ugm-3
03-01-2017,07:00,3.16814,R,ugm-3,20.82808,R,ugm-3,25.68583,R,ugm-3
03-01-2017,08:00,12.01555,R,ugm-3,34.54310,R,ugm-3,52.96669,R,ugm-3
03-01-2017,09:00,11.93822,R,ugm-3,35.66526,R,ugm-3,53.97027,R,ugm-3
03-01-2017,10:00,6.60664,R,ugm-3,23.88187,R,ugm-3,34.01190,R,ugm-3
03-01-2017,11:00,6.02695,R,ugm-3,22.58567,R,ugm-3,31.82687,R,ugm-3
03-01-2017,12:00,6.14295,R,ugm-3,20.34087,R,ugm-3,29.75993,R,ugm-3
03-01-2017,13:00,4.44319,R,ugm-3,12.96771,R,ugm-3,19.78051,R,ugm-3
03-01-2017,14:00,3.94116,R,ugm-3,13.61987,R,ugm-3,19.66289,R,ugm-3
03-01-2017,15:00,3.78618,R,ugm-3,14.62537,R,ugm-3,20.43076,R,ugm-3
03-01-2017,16:00,6.83863,R,ugm-3,24.05829,R,ugm-3,34.54405,R,ugm-3
03-01-2017,17:00,5.21559,R,ugm-3,22.35378,R,ugm-3,30.35090,R,ugm-3
03-01-2017,18:00,3.39983,R,ugm-3,15.27705,R,ugm-3,20.49005,R,ugm-3
03-01-2017,19:00,2.12446,R,ugm-3,11.20964,R,ugm-3,14.46711,R,ugm-3
03-01-2017,20:00,1.19772,R,ugm-3,7.96556,R,ugm-3,9.80204,R,ugm-3
03-01-2017,21:00,1.15874,R,ugm-3,7.78913,R,ugm-3,9.56585,R,ugm-3
03-01-2017,22:00,1.15905,R,ugm-3,9.14653,R,ugm-3,10.92372,R,ugm-3
03-01-2017,23:00,0.81137,R,ugm-3,7.14080,R,ugm-3,8.38488,R,ugm-3
03-01-2017,24:00,0.46400,R,ugm-3,3.24456,R,ugm-3,3.95601,R,ugm-3
04-01-2017,01:00,0.46316,R,ugm-3,1.96669,R,ugm-3,2.67686,R,ugm-3
04-01-2017,02:00,0.46306,R,ugm-3,1.94740,R,ugm-3,2.65742,R,ugm-3
04-01-2017,03:00,0.42471,R,ugm-3,2.06454,R,ugm-3,2.71575,R,ugm-3
04-01-2017,04:00,0.61773,R,ugm-3,4.95768,R,ugm-3,5.90484,R,ugm-3
04-01-2017,05:00,1.11976,R,ugm-3,8.79368,R,ugm-3,10.51062,R,ugm-3
04-01-2017,06:00,1.15812,R,ugm-3,4.60100,R,ugm-3,6.37675,R,ugm-3
04-01-2017,07:00,42.42566,R,ugm-3,47.25883,R,ugm-3,112.31061,R,ugm-3
04-01-2017,08:00,19.91938,R,ugm-3,39.72454,R,ugm-3,70.26716,R,ugm-3
04-01-2017,09:00,14.20644,R,ugm-3,32.66024,R,ugm-3,54.44314,R,ugm-3
04-01-2017,10:00,5.44322,R,ugm-3,26.25576,R,ugm-3,34.60191,R,ugm-3
04-01-2017,11:00,4.13075,R,ugm-3,16.34040,R,ugm-3,22.67412,R,ugm-3
04-01-2017,12:00,3.39702,R,ugm-3,14.27729,R,ugm-3,19.48598,R,ugm-3
04-01-2017,13:00,3.20400,R,ugm-3,12.74299,R,ugm-3,17.65572,R,ugm-3
04-01-2017,14:00,4.32377,R,ugm-3,15.15895,R,ugm-3,21.78863,R,ugm-3
04-01-2017,15:00,2.54792,R,ugm-3,12.62680,R,ugm-3,16.53356,R,ugm-3
04-01-2017,16:00,11.04079,R,ugm-3,24.52255,R,ugm-3,41.45153,R,ugm-3
04-01-2017,17:00,3.93741,R,ugm-3,21.30238,R,ugm-3,27.33967,R,ugm-3
04-01-2017,18:00,1.73718,R,ugm-3,19.89287,R,ugm-3,22.55650,R,ugm-3
04-01-2017,19:00,1.58314,R,ugm-3,17.82593,R,ugm-3,20.25338,R,ugm-3
04-01-2017,20:00,1.19710,R,ugm-3,14.52113,R,ugm-3,16.35666,R,ugm-3
04-01-2017,21:00,2.35490,R,ugm-3,19.47738,R,ugm-3,23.08818,R,ugm-3
04-01-2017,22:00,0.81075,R,ugm-3,14.10995,R,ugm-3,15.35307,R,ugm-3
04-01-2017,23:00,0.65608,R,ugm-3,10.39013,R,ugm-3,11.39611,R,ugm-3
04-01-2017,24:00,4.01475,R,ugm-3,12.97631,R,ugm-3,19.13217,R,ugm-3
05-01-2017,01:00,0.82280,R,ugm-3,8.49278,R,ugm-3,9.75439,R,ugm-3
05-01-2017,02:00,1.31122,R,ugm-3,9.73032,R,ugm-3,11.74084,R,ugm-3
05-01-2017,03:00,0.57844,R,ugm-3,3.77432,R,ugm-3,4.66124,R,ugm-3
05-01-2017,04:00,1.07985,R,ugm-3,5.89672,R,ugm-3,7.55246,R,ugm-3
05-01-2017,05:00,1.38856,R,ugm-3,14.15489,R,ugm-3,16.28398,R,ugm-3
05-01-2017,06:00,1.04150,R,ugm-3,20.76449,R,ugm-3,22.36143,R,ugm-3
05-01-2017,07:00,10.76170,R,ugm-3,43.26649,R,ugm-3,59.76754,R,ugm-3
05-01-2017,08:00,54.81198,R,ugm-3,75.43474,R,ugm-3,159.47859,R,ugm-3
05-01-2017,09:00,98.90029,R,ugm-3,91.79139,R,ugm-3,243.43639,R,ugm-3
05-01-2017,10:00,63.60638,R,ugm-3,77.52606,R,ugm-3,175.05447,R,ugm-3
05-01-2017,11:00,49.25744,R,ugm-3,68.84761,R,ugm-3,144.37463,R,ugm-3
05-01-2017,12:00,42.50705,R,ugm-3,66.80793,R,ugm-3,131.98449,R,ugm-3
05-01-2017,13:00,37.53126,R,ugm-3,63.81726,R,ugm-3,121.36438,R,ugm-3
05-01-2017,14:00,19.71046,R,ugm-3,51.67049,R,ugm-3,81.89277,R,ugm-3
05-01-2017,15:00,12.11191,R,ugm-3,46.50674,R,ugm-3,65.07807,R,ugm-3
05-01-2017,16:00,21.48505,R,ugm-3,55.38074,R,ugm-3,88.32403,R,ugm-3
05-01-2017,17:00,46.32566,R,ugm-3,79.83253,R,ugm-3,150.86422,R,ugm-3
05-01-2017,18:00,40.84845,R,ugm-3,84.21885,R,ugm-3,146.85227,R,ugm-3
05-01-2017,19:00,39.03550,R,ugm-3,90.71561,R,ugm-3,150.56921,R,ugm-3
05-01-2017,20:00,68.65950,R,ugm-3,96.26951,R,ugm-3,201.54594,R,ugm-3
05-01-2017,21:00,72.24673,R,ugm-3,90.35654,R,ugm-3,201.13332,R,ugm-3
05-01-2017,22:00,20.44356,R,ugm-3,72.43546,R,ugm-3,103.78181,R,ugm-3
05-01-2017,23:00,15.12071,R,ugm-3,72.04244,R,ugm-3,95.22720,R,ugm-3
05-01-2017,24:00,7.29016,R,ugm-3,68.76776,R,ugm-3,79.94585,R,ugm-3
06-01-2017,01:00,3.70323,R,ugm-3,66.85335,R,ugm-3,72.53156,R,ugm-3
06-01-2017,02:00,1.19585,R,ugm-3,51.20814,R,ugm-3,53.04175,R,ugm-3
06-01-2017,03:00,1.23452,R,ugm-3,47.72692,R,ugm-3,49.61981,R,ugm-3
06-01-2017,04:00,0.88714,R,ugm-3,44.60141,R,ugm-3,45.96168,R,ugm-3
06-01-2017,05:00,2.23703,R,ugm-3,33.26842,R,ugm-3,36.69848,R,ugm-3
06-01-2017,06:00,1.04118,R,ugm-3,28.08124,R,ugm-3,29.67770,R,ugm-3
06-01-2017,07:00,2.46872,R,ugm-3,25.12451,R,ugm-3,28.90983,R,ugm-3
06-01-2017,08:00,5.05281,R,ugm-3,31.78288,R,ugm-3,39.53042,R,ugm-3
06-01-2017,09:00,5.32348,R,ugm-3,28.35903,R,ugm-3,36.52158,R,ugm-3
06-01-2017,10:00,2.77711,R,ugm-3,27.07144,R,ugm-3,31.32962,R,ugm-3
06-01-2017,11:00,3.35586,R,ugm-3,28.95668,R,ugm-3,34.10227,R,ugm-3
06-01-2017,12:00,4.58975,R,ugm-3,31.72551,R,ugm-3,38.76303,R,ugm-3
06-01-2017,13:00,6.98145,R,ugm-3,35.61075,R,ugm-3,46.31549,R,ugm-3
06-01-2017,14:00,6.90474,R,ugm-3,37.73458,R,ugm-3,48.32170,R,ugm-3
06-01-2017,15:00,9.33479,R,ugm-3,44.68748,R,ugm-3,59.00063,R,ugm-3
06-01-2017,16:00,6.94310,R,ugm-3,44.99156,R,ugm-3,55.63749,R,ugm-3
06-01-2017,17:00,3.54857,R,ugm-3,41.28705,R,ugm-3,46.72811,R,ugm-3
06-01-2017,18:00,2.81578,R,ugm-3,41.28992,R,ugm-3,45.60739,R,ugm-3
06-01-2017,19:00,5.74756,R,ugm-3,47.82780,R,ugm-3,56.64060,R,ugm-3
06-01-2017,20:00,7.29047,R,ugm-3,49.59208,R,ugm-3,60.77064,R,ugm-3
06-01-2017,21:00,4.59038,R,ugm-3,44.76398,R,ugm-3,51.80245,R,ugm-3
06-01-2017,22:00,3.04715,R,ugm-3,39.51942,R,ugm-3,44.19166,R,ugm-3
06-01-2017,23:00,2.58441,R,ugm-3,38.04584,R,ugm-3,42.00854,R,ugm-3
06-01-2017,24:00,2.27601,R,ugm-3,34.56557,R,ugm-3,38.05540,R,ugm-3
07-01-2017,01:00,1.95286,R,ugm-3,33.74351,R,ugm-3,36.73785,R,ugm-3
07-01-2017,02:00,2.15845,R,ugm-3,28.84576,R,ugm-3,32.15534,R,ugm-3
07-01-2017,03:00,2.11979,R,ugm-3,25.60073,R,ugm-3,28.85102,R,ugm-3
07-01-2017,04:00,2.92928,R,ugm-3,26.30692,R,ugm-3,30.79842,R,ugm-3
07-01-2017,05:00,5.62688,R,ugm-3,27.48071,R,ugm-3,36.10848,R,ugm-3
07-01-2017,06:00,11.09972,R,ugm-3,30.06307,R,ugm-3,47.08240,R,ugm-3
07-01-2017,07:00,33.10708,R,ugm-3,39.50795,R,ugm-3,90.27143,R,ugm-3
07-01-2017,08:00,21.31355,R,ugm-3,38.71043,R,ugm-3,71.39076,R,ugm-3
07-01-2017,09:00,29.40728,R,ugm-3,41.52229,R,ugm-3,86.61282,R,ugm-3
07-01-2017,10:00,65.59769,R,ugm-3,50.45988,R,ugm-3,151.04160,R,ugm-3
07-01-2017,11:00,46.48126,R,ugm-3,44.42977,R,ugm-3,115.70003,R,ugm-3
07-01-2017,12:00,47.67617,R,ugm-3,47.20002,R,ugm-3,120.30247,R,ugm-3
07-01-2017,13:00,21.12084,R,ugm-3,45.61408,R,ugm-3,77.99892,R,ugm-3
07-01-2017,14:00,3.46905,R,ugm-3,24.53546,R,ugm-3,29.85460,R,ugm-3
07-01-2017,15:00,2.92928,R,ugm-3,26.36573,R,ugm-3,30.85723,R,ugm-3
07-01-2017,16:00,4.27855,R,ugm-3,32.08506,R,ugm-3,38.64541,R,ugm-3
07-01-2017,17:00,8.98025,R,ugm-3,50.83616,R,ugm-3,64.60568,R,ugm-3
07-01-2017,18:00,29.48430,R,ugm-3,69.01639,R,ugm-3,114.22502,R,ugm-3
07-01-2017,19:00,35.92099,R,ugm-3,71.47873,R,ugm-3,126.55682,R,ugm-3
07-01-2017,20:00,51.33731,R,ugm-3,73.50550,R,ugm-3,152.22161,R,ugm-3
07-01-2017,21:00,21.23653,R,ugm-3,51.57343,R,ugm-3,84.13566,R,ugm-3
07-01-2017,22:00,42.16435,R,ugm-3,48.74819,R,ugm-3,113.39930,R,ugm-3
07-01-2017,23:00,46.05718,R,ugm-3,44.19501,R,ugm-3,114.81503,R,ugm-3
07-01-2017,24:00,19.46349,R,ugm-3,34.46708,R,ugm-3,64.31068,R,ugm-3
08-01-2017,01:00,10.01332,R,ugm-3,31.65188,R,ugm-3,47.00543,R,ugm-3
08-01-2017,02:00,5.42981,R,ugm-3,28.52016,R,ugm-3,36.84575,R,ugm-3
08-01-2017,03:00,4.73693,R,ugm-3,27.22444,R,ugm-3,34.48763,R,ugm-3
08-01-2017,04:00,4.54454,R,ugm-3,25.92776,R,ugm-3,32.89596,R,ugm-3
08-01-2017,05:00,3.04248,R,ugm-3,27.16945,R,ugm-3,31.83452,R,ugm-3
08-01-2017,06:00,6.08464,R,ugm-3,30.34612,R,ugm-3,39.67577,R,ugm-3
08-01-2017,07:00,9.01112,R,ugm-3,30.81038,R,ugm-3,44.62723,R,ugm-3
08-01-2017,08:00,7.12427,R,ugm-3,30.81516,R,ugm-3,41.73888,R,ugm-3
08-01-2017,09:00,12.09195,R,ugm-3,33.92727,R,ugm-3,52.46800,R,ugm-3
08-01-2017,10:00,11.78449,R,ugm-3,31.68678,R,ugm-3,49.75608,R,ugm-3
08-01-2017,11:00,14.44124,R,ugm-3,32.44748,R,ugm-3,54.59040,R,ugm-3
08-01-2017,12:00,14.94203,R,ugm-3,32.44556,R,ugm-3,55.35636,R,ugm-3
08-01-2017,13:00,16.44378,R,ugm-3,30.37863,R,ugm-3,55.59207,R,ugm-3
08-01-2017,14:00,15.44251,R,ugm-3,32.20889,R,ugm-3,55.88708,R,ugm-3
08-01-2017,15:00,11.55312,R,ugm-3,37.05278,R,ugm-3,54.76731,R,ugm-3
08-01-2017,16:00,16.09765,R,ugm-3,45.11779,R,ugm-3,69.80051,R,ugm-3
08-01-2017,17:00,19.40924,R,ugm-3,48.88302,R,ugm-3,78.64343,R,ugm-3
08-01-2017,18:00,4.39018,R,ugm-3,40.01763,R,ugm-3,46.74915,R,ugm-3
08-01-2017,19:00,3.77402,R,ugm-3,41.72932,R,ugm-3,47.51606,R,ugm-3
08-01-2017,20:00,1.69383,R,ugm-3,30.23949,R,ugm-3,32.83667,R,ugm-3
08-01-2017,21:00,1.03994,R,ugm-3,17.91917,R,ugm-3,19.51372,R,ugm-3
08-01-2017,22:00,0.77021,R,ugm-3,14.55986,R,ugm-3,15.74083,R,ugm-3
08-01-2017,23:00,0.50048,R,ugm-3,10.37483,R,ugm-3,11.14223,R,ugm-3
08-01-2017,24:00,0.42346,R,ugm-3,9.07816,R,ugm-3,9.72745,R,ugm-3
09-01-2017,01:00,0.51306,R,ugm-3,8.25244,R,ugm-3,9.03911,R,ugm-3
09-01-2017,02:00,0.61617,R,ugm-3,9.84364,R,ugm-3,10.78841,R,ugm-3
09-01-2017,03:00,0.42315,R,ugm-3,10.84722,R,ugm-3,11.49604,R,ugm-3
09-01-2017,04:00,0.38479,R,ugm-3,7.89863,R,ugm-3,8.48863,R,ugm-3
09-01-2017,05:00,0.30840,R,ugm-3,6.18885,R,ugm-3,6.66172,R,ugm-3
09-01-2017,06:00,0.30808,R,ugm-3,6.54266,R,ugm-3,7.01505,R,ugm-3
09-01-2017,07:00,0.69319,R,ugm-3,9.48983,R,ugm-3,10.55270,R,ugm-3
09-01-2017,08:00,4.12077,R,ugm-3,17.20389,R,ugm-3,23.52232,R,ugm-3
09-01-2017,09:00,13.09353,R,ugm-3,24.02052,R,ugm-3,44.09699,R,ugm-3
09-01-2017,10:00,1.73281,R,ugm-3,15.61843,R,ugm-3,18.27537,R,ugm-3
09-01-2017,11:00,1.50206,R,ugm-3,14.38057,R,ugm-3,16.68369,R,ugm-3
09-01-2017,12:00,4.12108,R,ugm-3,18.02866,R,ugm-3,24.34756,R,ugm-3
09-01-2017,13:00,5.08368,R,ugm-3,21.85844,R,ugm-3,29.65331,R,ugm-3
09-01-2017,14:00,4.85262,R,ugm-3,21.44678,R,ugm-3,28.88736,R,ugm-3
09-01-2017,15:00,5.66087,R,ugm-3,24.51060,R,ugm-3,33.19048,R,ugm-3
09-01-2017,16:00,6.23868,R,ugm-3,29.81444,R,ugm-3,39.38029,R,ugm-3
09-01-2017,17:00,3.96673,R,ugm-3,28.81755,R,ugm-3,34.89978,R,ugm-3
09-01-2017,18:00,1.65579,R,ugm-3,35.42667,R,ugm-3,37.96552,R,ugm-3
09-01-2017,19:00,1.19398,R,ugm-3,30.71188,R,ugm-3,32.54262,R,ugm-3
09-01-2017,20:00,1.07798,R,ugm-3,23.10730,R,ugm-3,24.76018,R,ugm-3
09-01-2017,21:00,0.88558,R,ugm-3,15.38463,R,ugm-3,16.74250,R,ugm-3
09-01-2017,22:00,0.50048,R,ugm-3,8.78268,R,ugm-3,9.55007,R,ugm-3
09-01-2017,23:00,0.38479,R,ugm-3,5.89528,R,ugm-3,6.48529,R,ugm-3
09-01-2017,24:00,0.42346,R,ugm-3,4.71527,R,ugm-3,5.36456,R,ugm-3
10-01-2017,01:00,0.35922,R,ugm-3,2.82922,R,ugm-3,3.38002,R,ugm-3
10-01-2017,02:00,0.61585,R,ugm-3,2.29787,R,ugm-3,3.24217,R,ugm-3
10-01-2017,03:00,0.69256,R,ugm-3,2.06263,R,ugm-3,3.12455,R,ugm-3
10-01-2017,04:00,0.69288,R,ugm-3,2.41644,R,ugm-3,3.47884,R,ugm-3
10-01-2017,05:00,0.61617,R,ugm-3,2.41549,R,ugm-3,3.36026,R,ugm-3
10-01-2017,06:00,1.30873,R,ugm-3,5.00884,R,ugm-3,7.01553,R,ugm-3
10-01-2017,07:00,11.00524,R,ugm-3,21.14986,R,ugm-3,38.02433,R,ugm-3
10-01-2017,08:00,35.90104,R,ugm-3,72.46749,R,ugm-3,127.51498,R,ugm-3
10-01-2017,09:00,59.33500,R,ugm-3,86.94082,R,ugm-3,177.91988,R,ugm-3
10-01-2017,10:00,20.81744,R,ugm-3,63.70203,R,ugm-3,95.62165,R,ugm-3
10-01-2017,11:00,8.11899,R,ugm-3,33.12163,R,ugm-3,45.57057,R,ugm-3
10-01-2017,12:00,8.11930,R,ugm-3,22.39203,R,ugm-3,34.84145,R,ugm-3
10-01-2017,13:00,5.34842,R,ugm-3,15.38033,R,ugm-3,23.58113,R,ugm-3
10-01-2017,14:00,4.27107,R,ugm-3,18.38773,R,ugm-3,24.93661,R,ugm-3
10-01-2017,15:00,4.80990,R,ugm-3,19.21298,R,ugm-3,26.58805,R,ugm-3
10-01-2017,16:00,5.27140,R,ugm-3,29.64758,R,ugm-3,37.73028,R,ugm-3
10-01-2017,17:00,1.77023,R,ugm-3,26.23137,R,ugm-3,28.94569,R,ugm-3
10-01-2017,18:00,2.03934,R,ugm-3,34.19024,R,ugm-3,37.31718,R,ugm-3
10-01-2017,19:00,2.80892,R,ugm-3,30.71093,R,ugm-3,35.01788,R,ugm-3
10-01-2017,20:00,2.19338,R,ugm-3,20.98443,R,ugm-3,24.34756,R,ugm-3
10-01-2017,21:00,1.30811,R,ugm-3,16.97726,R,ugm-3,18.98300,R,ugm-3
10-01-2017,22:00,0.69256,R,ugm-3,10.02102,R,ugm-3,11.08294,R,ugm-3
10-01-2017,23:00,0.53883,R,ugm-3,6.83814,R,ugm-3,7.66434,R,ugm-3
10-01-2017,24:00,0.30808,R,ugm-3,3.30098,R,ugm-3,3.77336,R,ugm-3
11-01-2017,01:00,0.10228,R,ugm-3,2.67049,R,ugm-3,2.82731,R,ugm-3
11-01-2017,02:00,0.49954,R,ugm-3,2.12048,R,ugm-3,2.88644,R,ugm-3
11-01-2017,03:00,0.23075,R,ugm-3,1.88477,R,ugm-3,2.23858,R,ugm-3
11-01-2017,04:00,0.11538,R,ugm-3,1.17810,R,ugm-3,1.35501,R,ugm-3
11-01-2017,05:00,0.30777,R,ugm-3,1.00024,R,ugm-3,1.47215,R,ugm-3
11-01-2017,06:00,2.03778,R,ugm-3,5.12263,R,ugm-3,8.24718,R,ugm-3
11-01-2017,07:00,8.22813,R,ugm-3,10.12095,R,ugm-3,22.73723,R,ugm-3
11-01-2017,08:00,3.49868,R,ugm-3,9.12597,R,ugm-3,14.49053,R,ugm-3
11-01-2017,09:00,3.11451,R,ugm-3,10.77598,R,ugm-3,15.55149,R,ugm-3
11-01-2017,10:00,3.03749,R,ugm-3,8.83193,R,ugm-3,13.48934,R,ugm-3
11-01-2017,11:00,2.96078,R,ugm-3,7.18239,R,ugm-3,11.72219,R,ugm-3
11-01-2017,12:00,2.15346,R,ugm-3,6.53501,R,ugm-3,9.83694,R,ugm-3
11-01-2017,13:00,3.53734,R,ugm-3,7.35834,R,ugm-3,12.78219,R,ugm-3
11-01-2017,14:00,2.26853,R,ugm-3,7.12406,R,ugm-3,10.60242,R,ugm-3
11-01-2017,15:00,2.72972,R,ugm-3,9.83408,R,ugm-3,14.01958,R,ugm-3
11-01-2017,16:00,3.53734,R,ugm-3,11.89432,R,ugm-3,17.31817,R,ugm-3
11-01-2017,17:00,4.30630,R,ugm-3,13.83694,R,ugm-3,20.43984,R,ugm-3
11-01-2017,18:00,3.65241,R,ugm-3,14.48671,R,ugm-3,20.08699,R,ugm-3
11-01-2017,19:00,1.76836,R,ugm-3,10.24765,R,ugm-3,12.95910,R,ugm-3
11-01-2017,20:00,1.69165,R,ugm-3,7.59693,R,ugm-3,10.19076,R,ugm-3
11-01-2017,21:00,1.11509,R,ugm-3,5.88907,R,ugm-3,7.59884,R,ugm-3
11-01-2017,22:00,0.80732,R,ugm-3,4.59430,R,ugm-3,5.83217,R,ugm-3
11-01-2017,23:00,0.96073,R,ugm-3,3.94644,R,ugm-3,5.41955,R,ugm-3
11-01-2017,24:00,0.61492,R,ugm-3,2.53263,R,ugm-3,3.47549,R,ugm-3
12-01-2017,01:00,0.41036,R,ugm-3,2.27651,R,ugm-3,2.90572,R,ugm-3
12-01-2017,02:00,0.46119,R,ugm-3,1.64905,R,ugm-3,2.35620,R,ugm-3
12-01-2017,03:00,0.46150,R,ugm-3,2.06072,R,ugm-3,2.76834,R,ugm-3
12-01-2017,04:00,0.49986,R,ugm-3,2.65025,R,ugm-3,3.41668,R,ugm-3
12-01-2017,05:00,0.53821,R,ugm-3,3.65144,R,ugm-3,4.47668,R,ugm-3
12-01-2017,06:00,0.99971,R,ugm-3,6.24240,R,ugm-3,7.77527,R,ugm-3
12-01-2017,07:00,4.22928,R,ugm-3,17.07719,R,ugm-3,23.56200,R,ugm-3
12-01-2017,08:00,12.14964,R,ugm-3,37.38938,R,ugm-3,56.01856,R,ugm-3
12-01-2017,09:00,15.60996,R,ugm-3,46.33844,R,ugm-3,70.27338,R,ugm-3
12-01-2017,10:00,6.92064,R,ugm-3,31.15223,R,ugm-3,41.76374,R,ugm-3
12-01-2017,11:00,4.53705,R,ugm-3,19.78577,R,ugm-3,26.74249,R,ugm-3
12-01-2017,12:00,4.57510,R,ugm-3,17.13600,R,ugm-3,24.15105,R,ugm-3
12-01-2017,13:00,4.38301,R,ugm-3,17.78386,R,ugm-3,24.50438,R,ugm-3
12-01-2017,14:00,6.03631,R,ugm-3,20.31505,R,ugm-3,29.57060,R,ugm-3
12-01-2017,15:00,9.91978,R,ugm-3,28.14435,R,ugm-3,43.35446,R,ugm-3
12-01-2017,16:00,15.03340,R,ugm-3,42.03914,R,ugm-3,65.09003,R,ugm-3
12-01-2017,17:00,9.45828,R,ugm-3,34.21223,R,ugm-3,48.71472,R,ugm-3
12-01-2017,18:00,5.84391,R,ugm-3,30.74153,R,ugm-3,39.70207,R,ugm-3
12-01-2017,19:00,6.84362,R,ugm-3,49.76612,R,ugm-3,60.25953,R,ugm-3
12-01-2017,20:00,5.11362,R,ugm-3,56.95473,R,ugm-3,64.79550,R,ugm-3
12-01-2017,21:00,3.30659,R,ugm-3,28.97677,R,ugm-3,34.04680,R,ugm-3
12-01-2017,22:00,1.92240,R,ugm-3,17.60982,R,ugm-3,20.55746,R,ugm-3
12-01-2017,23:00,1.19211,R,ugm-3,13.01600,R,ugm-3,14.84387,R,ugm-3
12-01-2017,24:00,0.76865,R,ugm-3,4.24097,R,ugm-3,5.41955,R,ugm-3
13-01-2017,01:00,0.61492,R,ugm-3,4.63335,R,ugm-3,5.57621,R,ugm-3
13-01-2017,02:00,0.65327,R,ugm-3,2.53263,R,ugm-3,3.53430,R,ugm-3
13-01-2017,03:00,0.76834,R,ugm-3,3.12216,R,ugm-3,4.30026,R,ugm-3
13-01-2017,04:00,0.92238,R,ugm-3,2.47334,R,ugm-3,3.88763,R,ugm-3
13-01-2017,05:00,0.84505,R,ugm-3,2.17977,R,ugm-3,3.47549,R,ugm-3
13-01-2017,06:00,1.61338,R,ugm-3,3.06335,R,ugm-3,5.53717,R,ugm-3
13-01-2017,07:00,15.21332,R,ugm-3,22.08890,R,ugm-3,45.41566,R,ugm-3
13-01-2017,08:00,15.67420,R,ugm-3,15.60935,R,ugm-3,39.64278,R,ugm-3
13-01-2017,09:00,6.41580,R,ugm-3,12.25195,R,ugm-3,22.08938,R,ugm-3
13-01-2017,10:00,3.68827,R,ugm-3,9.24789,R,ugm-3,14.90316,R,ugm-3
13-01-2017,11:00,2.76589,R,ugm-3,9.30718,R,ugm-3,13.54815,R,ugm-3
13-01-2017,12:00,2.91962,R,ugm-3,11.54528,R,ugm-3,16.02197,R,ugm-3
13-01-2017,13:00,3.34245,R,ugm-3,12.01672,R,ugm-3,17.14174,R,ugm-3
13-01-2017,14:00,3.99573,R,ugm-3,15.37363,R,ugm-3,21.50033,R,ugm-3
13-01-2017,15:00,3.84168,R,ugm-3,15.84554,R,ugm-3,21.73604,R,ugm-3
13-01-2017,16:00,4.37958,R,ugm-3,16.61102,R,ugm-3,23.32628,R,ugm-3
13-01-2017,17:00,4.45629,R,ugm-3,17.96603,R,ugm-3,24.79891,R,ugm-3
13-01-2017,18:00,2.38172,R,ugm-3,20.38103,R,ugm-3,24.03295,R,ugm-3
13-01-2017,19:00,2.45843,R,ugm-3,21.97176,R,ugm-3,25.74129,R,ugm-3
13-01-2017,20:00,1.72876,R,ugm-3,13.66577,R,ugm-3,16.31649,R,ugm-3
13-01-2017,21:00,1.65174,R,ugm-3,15.02078,R,ugm-3,17.55340,R,ugm-3
13-01-2017,22:00,1.34459,R,ugm-3,15.66863,R,ugm-3,17.73031,R,ugm-3
13-01-2017,23:00,2.34337,R,ugm-3,24.85820,R,ugm-3,28.45131,R,ugm-3
13-01-2017,24:00,1.11415,R,ugm-3,12.25243,R,ugm-3,13.96077,R,ugm-3
14-01-2017,01:00,0.76834,R,ugm-3,9.73016,R,ugm-3,10.90826,R,ugm-3
14-01-2017,02:00,1.26788,R,ugm-3,10.88691,R,ugm-3,12.83096,R,ugm-3
14-01-2017,03:00,2.22799,R,ugm-3,10.12095,R,ugm-3,13.53715,R,ugm-3
14-01-2017,04:00,0.72998,R,ugm-3,2.00000,R,ugm-3,3.11929,R,ugm-3
14-01-2017,05:00,0.72998,R,ugm-3,1.70547,R,ugm-3,2.82476,R,ugm-3
14-01-2017,06:00,1.11384,R,ugm-3,2.64786,R,ugm-3,4.35572,R,ugm-3
14-01-2017,07:00,1.80578,R,ugm-3,5.23595,R,ugm-3,8.00477,R,ugm-3
14-01-2017,08:00,2.18964,R,ugm-3,13.00500,R,ugm-3,16.36239,R,ugm-3
14-01-2017,09:00,3.38081,R,ugm-3,22.59667,R,ugm-3,27.78050,R,ugm-3
14-01-2017,10:00,10.91045,R,ugm-3,47.30808,R,ugm-3,64.03719,R,ugm-3
14-01-2017,11:00,8.64379,R,ugm-3,29.24117,R,ugm-3,42.49479,R,ugm-3
14-01-2017,12:00,5.95492,R,ugm-3,21.18094,R,ugm-3,30.31169,R,ugm-3
14-01-2017,13:00,3.22677,R,ugm-3,10.47285,R,ugm-3,15.42049,R,ugm-3
14-01-2017,14:00,2.72753,R,ugm-3,8.64880,R,ugm-3,12.83096,R,ugm-3
14-01-2017,15:00,3.95675,R,ugm-3,13.23833,R,ugm-3,19.30525,R,ugm-3
14-01-2017,16:00,3.34214,R,ugm-3,21.36119,R,ugm-3,26.48573,R,ugm-3
14-01-2017,17:00,2.76589,R,ugm-3,26.07024,R,ugm-3,30.31121,R,ugm-3
14-01-2017,18:00,4.80179,R,ugm-3,39.54668,R,ugm-3,46.90932,R,ugm-3
14-01-2017,19:00,9.64288,R,ugm-3,45.89618,R,ugm-3,60.68171,R,ugm-3
14-01-2017,20:00,10.18046,R,ugm-3,46.54356,R,ugm-3,62.15338,R,ugm-3
14-01-2017,21:00,14.67511,R,ugm-3,53.30711,R,ugm-3,75.80863,R,ugm-3
14-01-2017,22:00,9.52750,R,ugm-3,50.31070,R,ugm-3,64.91933,R,ugm-3
14-01-2017,23:00,4.49465,R,ugm-3,52.67168,R,ugm-3,59.56338,R,ugm-3
14-01-2017,24:00,6.72326,R,ugm-3,53.84548,R,ugm-3,64.15433,R,ugm-3
15-01-2017,01:00,2.55904,R,ugm-3,43.86829,R,ugm-3,47.79210,R,ugm-3
15-01-2017,02:00,2.91744,R,ugm-3,38.25717,R,ugm-3,42.73051,R,ugm-3
15-01-2017,03:00,0.84473,R,ugm-3,17.77478,R,ugm-3,19.07002,R,ugm-3
15-01-2017,04:00,0.53696,R,ugm-3,6.35715,R,ugm-3,7.18048,R,ugm-3
15-01-2017,05:00,0.34519,R,ugm-3,5.18001,R,ugm-3,5.70929,R,ugm-3
15-01-2017,06:00,0.80669,R,ugm-3,8.41548,R,ugm-3,9.65239,R,ugm-3
15-01-2017,07:00,0.57563,R,ugm-3,8.06358,R,ugm-3,8.94620,R,ugm-3
15-01-2017,08:00,0.92144,R,ugm-3,13.18334,R,ugm-3,14.59620,R,ugm-3
15-01-2017,09:00,1.15188,R,ugm-3,18.53930,R,ugm-3,20.30549,R,ugm-3
15-01-2017,10:00,2.41789,R,ugm-3,26.66312,R,ugm-3,30.37050,R,ugm-3
15-01-2017,11:00,6.71733,R,ugm-3,36.84479,R,ugm-3,47.14456,R,ugm-3
15-01-2017,12:00,1.76555,R,ugm-3,10.65310,R,ugm-3,13.36025,R,ugm-3
15-01-2017,13:00,1.99599,R,ugm-3,14.59668,R,ugm-3,17.65716,R,ugm-3
15-01-2017,14:00,2.26447,R,ugm-3,13.89097,R,ugm-3,17.36311,R,ugm-3
15-01-2017,15:00,1.72720,R,ugm-3,11.18334,R,ugm-3,13.83168,R,ugm-3
15-01-2017,16:00,1.26695,R,ugm-3,11.47643,R,ugm-3,13.41906,R,ugm-3
15-01-2017,17:00,0.88309,R,ugm-3,20.24620,R,ugm-3,21.60025,R,ugm-3
15-01-2017,18:00,1.65080,R,ugm-3,21.60073,R,ugm-3,24.13193,R,ugm-3
15-01-2017,19:00,0.84473,R,ugm-3,15.71406,R,ugm-3,17.00930,R,ugm-3
15-01-2017,20:00,0.99846,R,ugm-3,20.36382,R,ugm-3,21.89478,R,ugm-3